Theta_e
286 279 278 281 278 280 281 281 282 281 281 280 279 278 281 282 281 281 281 284 280 283 280 279 279 280 284 287 288 288 284 283 282 283 284 284 284 284 284 284 285 285 287 288 289 289 290 291 290 289 289 290 292 291 290 291 292 291 291 291 293 292 291 292 292 292 292 292 293 290 289 290 289 291 293 293 291 291 291 292 291 291 291 289 289 292
284 282 281 280 281 280 283 280 280 281 280 281 280 281 282 281 282 284 284 282 282 284 280 279 281 285 287 288 288 285 283 284 284 283 284 285 283 283 283 284 285 286 286 287 291 294 290 289 289 289 290 291 294 292 291 291 291 290 290 291 292 292 291 290 292 292 292 292 293 293 293 290 289 291 291 292 294 295 294 293 292 291 290 289 289 291
281 281 282 281 280 280 279 280 282 282 280 280 284 280 282 281 280 281 282 280 281 284 282 278 283 286 287 287 286 283 283 283 282 284 283 283 283 282 282 283 284 284 286 287 288 288 289 289 289 289 289 290 290 290 290 290 291 291 291 291 291 291 291 292 293 294 292 292 291 292 291 291 291 288 290 290 292 291 292 291 291 291 290 290 290 289
283 282 283 282 280 282 281 280 280 279 280 280 282 283 282 280 281 282 281 280 281 283 281 279 281 285 284 283 282 282 282 282 282 282 284 283 285 283 284 284 285 284 285 288 289 291 288 287 288 289 291 291 290 291 291 291 291 292 294 292 292 292 291 291 292 296 295 293 293 291 291 289 290 293 293 290 289 289 291 294 291 291 291 291 291 290
282 283 281 280 281 283 281 280 282 281 282 280 281 279 280 282 281 281 280 281 281 282 281 280 279 280 280 282 284 284 283 282 284 282 283 284 283 283 284 285 285 286 286 288 289 289 289 289 289 289 290 289 290 291 291 292 292 293 292 292 291 291 291 291 293 292 291 292 291 290 290 291 289 288 289 291 293 293 293 294 294 294 292 292 292 291
282 283 282 284 281 281 283 281 279 278 282 278 278 281 281 279 281 278 279 281 277 281 281 280 278 276 280 279 280 282 282 283 283 284 287 286 283 284 286 286 285 287 286 287 288 289 287 287 288 289 288 289 289 290 291 290 291 290 292 291 291 291 291 291 291 291 292 291 291 291 291 293 290 291 292 292 291 292 292 292 292 293 292 292 291 290
282 282 283 282 281 280 281 281 281 279 280 281 283 279 280 279 279 279 279 281 278 281 280 277 279 273 276 284 286 282 280 281 282 284 284 282 283 284 285 285 286 286 286 287 287 287 287 288 288 289 289 289 289 290 289 288 289 289 290 290 290 291 292 292 291 290 294 290 290 290 291 291 291 290 290 288 288 289 292 292 292 292 292 291 291 292
283 283 282 279 282 280 283 284 283 278 280 281 281 278 279 280 281 279 277 278 279 277 278 274 278 276 275 279 280 278 281 282 285 287 288 287 284 284 283 285 285 285 285 286 287 287 287 287 288 289 290 289 290 289 289 289 290 290 290 290 292 292 294 292 291 291 292 292 290 289 289 292 291 290 291 292 292 291 291 291 292 292 292 292 292 292
283 284 282 282 279 280 281 281 281 280 282 282 280 281 281 281 280 278 278 279 278 278 277 278 276 278 274 277 279 281 286 286 285 287 287 286 287 288 287 286 284 285 286 286 287 288 288 288 289 289 290 290 289 290 290 290 290 290 291 293 293 294 293 293 292 293 291 294 291 290 289 291 291 291 292 292 290 291 291 290 292 292 293 293 293 292
282 284 283 284 282 282 281 280 279 282 280 282 280 280 279 279 278 279 278 281 277 277 273 277 274 277 277 275 281 283 283 282 283 284 284 287 289 287 289 289 288 287 286 285 286 286 287 287 289 288 288 290 290 289 291 290 291 292 293 294 294 293 293 292 292 292 292 291 292 291 290 290 291 291 291 289 291 292 291 292 292 292 293 293 293 293
283 285 286 283 282 282 279 280 279 281 282 280 282 281 280 277 275 275 275 277 274 274 274 276 275 277 275 278 285 284 284 282 284 284 283 283 285 286 287 288 288 288 288 288 288 287 289 289 289 289 290 290 291 290 291 292 292 291 292 293 293 292 292 292 292 292 292 292 291 292 291 290 291 290 290 291 292 292 292 292 292 292 292 292 292 293
285 284 283 282 284 281 282 282 281 280 281 281 281 281 281 280 276 276 265 268 273 269 271 277 277 277 275 277 281 282 281 281 288 286 287 288 287 288 289 289 288 288 288 288 289 289 289 290 290 290 291 290 290 292 292 291 292 292 292 292 292 292 292 292 292 292 292 292 292 291 291 291 291 290 291 291 291 291 291 291 291 292 292 292 292 292
285 284 284 283 286 284 281 281 281 280 279 280 278 277 277 275 271 275 268 276 271 271 280 276 276 276 278 280 282 283 283 281 283 287 289 287 287 287 288 289 288 287 287 288 288 289 290 290 290 290 289 290 291 291 290 291 291 291 291 291 292 291 291 291 291 291 291 291 291 291 291 291 292 291 291 291 290 290 290 290 291 291 291 291 291 292
282 283 283 284 285 285 283 283 279 281 279 280 279 272 275 270 263 266 259 264 269 274 277 278 276 279 279 283 283 283 281 282 283 283 284 286 288 287 287 288 288 288 287 287 288 288 288 289 289 288 289 289 289 289 290 290 290 290 291 291 291 290 290 291 291 291 291 290 290 290 291 291 291 291 291 290 290 290 290 290 290 290 290 290 290 290
276 278 282 283 284 283 282 282 281 283 279 282 277 280 277 270 273 270 266 274 274 273 276 275 276 275 279 284 284 282 282 281 280 280 280 281 282 283 283 283 285 288 287 287 288 289 289 289 289 289 289 288 288 289 290 289 289 290 290 290 290 290 290 290 290 290 290 290 290 290 290 291 291 290 290 290 290 290 290 290 290 290 290 290 290 290
281 278 281 282 282 282 283 282 281 280 281 280 279 279 278 277 274 276 265 269 268 270 273 275 276 275 283 285 284 281 281 283 283 285 284 286 286 285 287 289 288 288 289 288 288 288 288 287 287 288 288 288 288 288 289 289 289 289 289 289 289 289 289 289 290 289 289 289 290 290 289 290 290 291 290 290 290 290 289 289 289 289 289 289 290 290
277 279 282 281 281 281 282 282 282 283 280 280 281 278 280 279 278 270 270 269 270 270 273 269 279 280 282 284 284 281 286 286 285 286 286 286 286 285 286 287 288 289 288 287 288 288 288 287 287 287 287 288 289 289 288 288 288 288 289 289 289 289 289 289 289 289 289 289 289 289 289 289 289 289 288 288 288 289 289 289 289 289 289 289 289 290
279 278 280 282 281 283 280 281 282 280 283 281 278 278 281 280 278 277 276 268 264 269 272 272 275 277 278 282 282 286 284 285 285 285 284 285 284 286 287 288 289 289 288 287 287 287 287 287 287 287 287 287 288 288 288 288 287 288 288 288 288 288 288 288 288 288 288 288 288 288 288 288 288 288 288 288 288 288 288 288 288 288 288 288 289 289
282 278 279 280 281 282 281 283 282 283 282 283 281 280 282 274 278 273 271 270 271 269 269 274 274 275 278 282 281 283 284 286 285 284 283 286 285 286 286 287 287 287 287 287 288 287 287 288 287 288 288 287 287 287 287 287 288 288 288 288 287 287 287 287 288 288 288 288 288 288 288 288 288 288 288 288 288 287 287 287 287 287 287 288 288 288
281 276 277 279 281 282 281 281 276 280 282 278 281 281 277 279 273 273 274 270 274 269 268 272 271 278 279 279 282 287 286 287 286 283 285 287 287 287 287 289 289 289 288 288 288 287 288 287 287 287 288 287 287 287 287 287 288 287 287 287 287 287 287 287 287 287 287 287 287 287 287 287 287 287 287 287 286 286 286 286 286 286 286 287 287 287
279 280 273 278 278 280 279 280 280 279 278 280 279 277 279 275 276 278 274 275 276 264 265 265 270 273 277 281 282 285 286 287 288 288 287 287 287 287 287 290 289 288 288 288 288 288 287 287 287 287 287 287 286 286 287 287 286 286 286 286 286 286 286 286 287 287 287 287 287 287 286 286 286 286 286 286 285 285 285 285 286 286 286 286 286 286
278 279 275 275 280 279 278 278 279 277 277 278 279 277 280 277 276 274 275 268 265 272 270 264 275 278 281 281 284 282 282 285 285 286 288 287 287 287 286 287 288 288 287 288 287 287 287 287 287 286 286 286 286 286 286 286 286 286 285 285 286 286 286 286 286 286 286 286 286 286 286 286 286 286 285 284 284 283 284 284 284 285 285 284 284 285
282 276 277 275 276 277 279 279 278 278 277 275 279 282 277 277 275 270 270 271 270 269 267 266 268 277 282 280 281 281 280 280 282 282 286 287 286 286 285 286 285 286 288 287 287 287 287 287 286 286 286 285 285 285 285 285 285 285 284 285 285 285 285 285 285 285 286 285 285 285 285 285 285 285 285 284 283 282 282 282 283 284 283 283 283 283
287 277 274 278 274 276 277 277 277 277 278 279 277 276 278 279 279 279 276 274 271 269 271 269 269 278 281 279 279 281 280 280 280 280 285 286 286 286 284 283 284 284 284 285 286 286 286 286 285 286 285 285 285 285 285 285 285 285 284 284 284 284 284 284 284 285 285 284 284 284 284 284 284 284 284 284 283 282 281 281 281 282 282 282 282 281
279 277 278 272 271 269 272 276 274 274 274 276 277 276 277 278 275 274 274 271 275 272 274 273 271 273 281 280 280 279 280 281 282 282 282 286 286 286 284 283 283 284 285 286 287 287 286 285 285 285 285 284 284 284 284 284 284 283 283 283 283 283 283 283 283 283 284 283 283 283 282 282 282 282 283 283 283 282 281 280 280 281 281 281 281 280
281 278 275 273 271 270 269 267 271 275 277 276 274 277 277 279 277 278 276 271 272 270 273 268 271 281 279 280 282 282 281 282 282 282 282 282 285 287 285 283 283 285 287 287 286 286 285 285 284 284 284 284 284 284 283 283 283 282 282 282 282 282 282 282 282 282 282 282 282 281 281 281 280 280 281 282 282 282 282 280 279 279 280 280 280 279
275 275 276 275 276 277 279 275 277 280 278 278 278 276 278 277 278 278 275 270 277 269 275 278 281 281 282 283 283 283 282 283 285 284 285 286 284 283 282 283 283 285 287 287 286 285 284 284 284 284 284 284 284 283 282 282 281 281 280 280 281 281 280 280 280 280 280 280 280 280 280 279 279 279 279 279 281 282 282 280 279 279 279 279 279 279
271 277 277 275 277 280 278 278 279 281 280 277 278 278 276 278 278 279 278 278 277 274 277 282 281 281 286 286 283 283 283 282 283 284 285 284 286 286 284 282 285 283 285 286 285 284 284 283 283 283 283 282 282 281 281 280 280 280 279 279 279 279 279 279 278 278 278 278 278 278 278 278 278 278 278 278 279 279 280 280 279 278 278 278 278 278
274 274 276 277 277 275 276 277 277 278 279 279 278 278 277 278 277 279 279 281 278 279 281 281 278 279 284 285 284 286 286 287 287 288 288 286 284 282 282 282 283 284 285 285 284 284 283 283 283 282 282 282 281 280 279 279 278 278 278 278 278 278 278 278 277 277 276 276 276 277 277 277 277 277 277 277 277 277 278 278 278 277 277 277 277 278
278 272 272 274 276 277 276 274 275 277 276 276 279 280 280 278 278 280 282 282 280 283 285 285 282 281 285 287 284 286 285 285 286 284 282 283 284 283 282 281 283 284 285 284 283 283 283 283 282 282 282 280 279 278 278 277 277 277 277 277 277 277 277 277 276 276 275 275 275 276 276 276 276 276 275 275 275 276 276 276 276 276 276 276 276 276
278 273 280 269 272 272 271 273 273 274 274 275 278 279 279 279 279 279 280 280 279 280 282 283 282 282 288 288 286 285 283 282 282 284 285 286 284 283 282 283 283 284 285 283 283 283 282 282 282 282 280 279 278 277 277 276 276 276 276 276 276 276 276 276 275 275 274 274 275 275 275 275 275 275 274 274 274 274 275 275 275 275 275 275 275 275
277 272 270 268 273 270 272 270 273 271 273 272 275 278 278 277 276 278 278 280 280 281 282 278 278 281 288 283 286 284 286 285 286 287 287 286 284 283 283 282 284 284 284 283 282 282 282 282 281 281 279 278 277 276 276 275 275 275 275 275 275 275 276 275 275 274 274 274 274 274 274 275 274 274 274 274 273 274 274 274 274 274 274 274 274 274
273 271 273 269 273 265 268 269 271 271 274 278 280 282 281 280 281 279 280 280 283 284 281 278 281 287 286 282 284 282 282 284 284 286 286 285 281 281 282 283 284 285 284 283 282 282 282 282 281 280 278 277 276 276 275 275 275 275 275 275 275 275 275 274 274 274 273 273 273 273 274 274 274 273 273 273 273 273 273 273 273 273 273 272 273 273
271 271 266 268 273 266 267 266 268 273 269 277 281 280 281 279 279 279 279 280 282 284 283 285 286 286 281 281 283 284 282 282 285 284 282 283 283 281 281 283 284 284 283 282 282 282 282 282 280 279 277 276 276 275 275 275 275 275 275 275 275 275 274 274 273 273 273 273 273 272 273 273 273 273 272 273 273 272 272 272 271 272 272 272 272 272
272 270 268 267 271 268 266 270 273 268 275 281 278 277 278 279 279 281 281 280 281 283 285 284 285 285 286 286 285 284 283 281 278 280 280 280 280 281 282 283 283 282 282 282 282 282 282 281 278 276 275 275 275 275 275 275 275 275 275 275 275 274 274 274 273 272 272 272 272 272 272 272 273 272 272 272 272 271 271 271 271 271 271 271 271 271
272 273 267 269 264 266 268 263 263 272 273 279 282 280 278 278 278 277 279 282 282 282 282 283 285 286 287 287 285 281 280 279 279 279 280 280 280 280 281 283 283 282 282 282 283 283 281 278 276 275 275 276 275 275 275 275 276 275 275 275 275 274 274 273 273 272 272 271 271 271 271 271 272 271 271 271 271 270 270 270 270 270 270 270 271 271
277 273 270 272 267 270 265 264 276 277 281 284 282 279 277 280 277 279 278 283 281 283 283 283 284 285 286 286 283 279 279 280 282 285 281 280 280 280 282 283 283 283 283 284 284 282 280 277 276 276 276 275 275 275 276 276 276 275 275 275 274 274 273 273 272 272 271 271 271 271 271 271 271 271 270 270 270 269 269 269 269 269 270 269 270 269
275 275 272 275 273 267 270 268 267 267 267 273 277 278 280 278 279 279 279 280 280 281 284 284 283 285 284 283 279 278 280 283 282 285 284 280 281 281 281 282 282 283 284 284 283 280 278 277 276 276 275 275 275 276 276 276 276 275 275 274 274 273 273 272 271 271 271 271 271 270 270 270 270 270 269 269 269 268 269 269 269 269 270 268 268 268
270 270 271 276 270 265 268 266 263 265 274 275 279 283 281 277 278 279 277 279 281 285 284 284 284 284 284 282 278 281 280 279 282 287 283 282 282 282 282 283 284 284 284 283 280 278 276 276 276 276 276 276 275 276 276 276 276 275 274 273 273 273 272 271 271 270 270 270 270 270 270 269 270 269 268 268 268 268 268 268 268 268 269 268 268 267
271 263 266 270 266 265 264 264 272 268 272 278 277 276 276 278 279 280 274 274 279 279 280 283 284 284 282 281 281 282 282 279 282 287 282 282 283 284 284 283 282 282 281 279 278 277 276 277 276 276 275 275 276 276 276 276 275 274 273 273 272 271 271 271 271 270 270 270 270 269 269 269 269 269 268 267 268 268 268 268 267 267 267 267 267 267
269 269 269 275 271 271 275 272 265 272 277 280 280 278 279 278 281 273 274 283 278 277 279 282 284 284 282 281 282 282 284 286 282 280 281 283 283 283 283 283 282 281 279 277 277 279 277 276 276 276 276 276 276 276 276 275 274 273 272 272 270 270 270 271 271 270 270 270 269 268 268 268 269 268 267 268 267 267 267 267 266 266 266 266 266 266
263 262 264 264 267 273 271 270 274 274 278 281 280 283 281 280 274 277 285 281 280 280 279 282 283 282 282 283 283 286 283 279 281 282 282 282 282 282 282 281 280 278 278 278 278 277 276 276 276 276 276 276 276 276 275 274 273 272 271 270 269 269 270 270 270 269 269 269 268 268 268 267 268 268 267 267 266 265 265 266 266 265 265 265 265 264
275 272 269 270 267 261 262 266 267 270 278 284 283 282 282 279 280 284 279 280 279 280 280 280 282 282 282 283 284 282 277 281 280 281 281 281 282 282 281 280 278 277 277 277 276 276 275 275 274 275 275 276 276 276 275 274 272 271 270 268 268 269 269 269 269 269 268 268 267 267 267 267 266 266 266 265 265 264 264 264 264 263 264 263 263 264
278 273 264 266 274 273 270 269 273 280 279 285 287 283 282 287 287 279 282 285 280 280 280 281 282 282 282 284 283 279 279 279 280 279 280 281 281 282 281 280 279 277 277 277 276 275 275 274 274 274 275 276 276 275 274 272 270 269 268 267 268 268 268 268 268 267 267 266 266 266 265 265 265 265 265 264 263 262 263 262 263 262 262 262 263 262
280 281 277 275 277 276 274 278 281 278 278 285 288 286 286 289 284 277 281 283 283 283 281 281 283 282 282 282 281 280 278 279 279 280 279 280 280 281 281 280 279 277 276 275 275 275 275 274 273 274 274 275 275 275 273 271 269 267 266 266 267 267 267 267 266 266 265 265 264 264 264 264 264 263 263 263 263 261 262 261 261 260 261 262 261 260
277 280 277 278 276 279 282 283 282 281 278 282 286 287 284 281 282 282 283 284 283 284 282 284 283 282 281 281 280 278 279 278 277 279 279 280 280 281 280 280 278 276 275 275 274 275 274 274 274 274 274 274 274 272 271 269 268 265 265 266 266 266 266 265 264 263 263 263 263 263 263 262 263 262 262 262 262 260 261 260 259 259 259 261 260 258
277 277 279 277 274 278 280 283 283 285 284 283 286 287 285 284 285 283 282 283 285 284 282 283 282 282 282 281 282 281 278 277 277 277 277 278 279 280 280 279 276 275 275 274 274 274 274 273 273 273 273 271 270 269 268 267 266 265 265 264 265 265 264 263 263 262 262 262 262 262 262 261 261 260 261 260 261 260 260 259 258 258 258 259 257 254
279 279 279 280 277 281 284 280 280 282 283 285 284 284 285 286 287 285 285 285 283 281 281 282 281 281 282 281 282 281 278 277 276 276 276 277 278 279 280 278 277 276 275 274 274 274 273 273 273 272 271 269 268 267 266 265 264 264 264 264 264 264 263 262 261 261 261 261 261 261 261 260 260 260 259 259 259 258 258 258 259 257 257 257 254 254
279 280 274 277 280 283 284 285 285 283 285 287 286 284 286 287 287 286 284 283 282 281 281 281 282 282 282 282 282 280 277 276 277 277 276 276 277 278 278 278 275 274 273 273 273 273 272 273 273 272 271 269 267 266 265 264 263 263 262 262 262 262 261 261 260 260 260 260 260 260 260 259 259 259 258 258 258 259 258 257 256 259 259 260 259 257
280 279 278 277 278 279 281 284 284 279 283 288 289 289 288 287 286 286 284 281 282 281 282 282 281 281 282 282 281 280 278 277 277 277 277 277 276 276 276 275 273 272 272 273 273 273 273 272 272 271 269 268 266 265 263 262 262 262 262 262 261 261 260 259 259 259 259 259 258 259 258 258 258 258 257 257 256 256 256 259 260 261 259 257 259 260
283 284 281 281 281 281 286 288 288 288 288 289 291 288 285 286 285 285 285 284 283 283 283 283 282 280 281 281 281 279 279 278 277 276 276 276 275 275 275 273 272 271 271 271 271 271 271 271 271 271 268 267 265 263 262 261 261 260 261 261 261 260 259 259 258 258 258 258 257 259 258 258 257 257 257 256 256 255 255 255 255 259 260 259 258 259
Wind_Speed
0 5 1 2 2 2 1 1 2 1 3 4 4 4 1 0 5 3 2 2 2 1 4 3 4 7 13 13 13 9 5 4 4 5 6 5 5 5 5 6 6 5 7 4 6 6 4 4 3 2 2 2 0 0 1 1 2 1 2 3 6 3 3 3 4 3 2 2 5 1 2 3 3 4 4 3 3 4 3 4 4 4 3 3 4 3
2 5 1 2 2 3 2 3 4 5 3 2 5 3 1 1 3 0 0 3 4 2 3 1 6 11 12 11 10 5 3 5 5 5 6 7 5 5 5 6 6 6 5 6 4 2 2 3 3 4 3 3 0 1 2 2 3 3 2 2 5 4 4 3 1 1 1 1 0 1 3 2 4 4 5 5 7 6 6 4 4 3 3 3 3 3
7 2 2 2 2 5 3 2 0 1 3 3 1 2 1 1 5 5 1 3 2 2 7 4 8 13 14 10 10 4 4 4 3 3 3 2 3 3 4 5 6 4 4 3 4 4 3 4 3 2 2 2 0 3 4 3 4 4 3 3 3 3 4 3 2 1 2 1 0 0 1 0 4 2 1 1 4 4 4 4 3 3 4 4 3 2
2 0 2 1 4 3 3 2 4 4 5 3 2 2 1 3 3 3 1 3 2 1 4 4 7 13 9 6 5 6 4 4 4 4 6 5 6 4 2 2 3 4 4 4 4 4 3 3 4 3 2 2 3 3 4 4 4 4 4 4 4 4 3 3 3 1 2 2 2 2 3 2 3 3 3 3 2 3 4 7 4 3 4 5 4 3
1 0 0 3 1 3 2 1 2 1 1 2 2 1 0 1 0 2 5 6 3 1 1 4 4 7 3 2 2 1 3 3 3 5 3 4 6 4 4 4 4 5 5 5 4 3 4 3 3 3 3 3 3 3 4 4 4 3 4 3 3 3 3 3 3 3 2 2 2 3 2 1 2 1 3 4 5 5 5 6 8 9 6 5 5 4
3 0 2 1 2 2 2 1 0 1 1 2 1 1 1 2 2 3 5 5 6 1 3 4 4 3 4 5 7 7 7 3 2 1 2 2 3 2 4 4 2 4 4 5 5 4 2 4 6 4 3 4 4 3 2 3 4 3 4 3 3 3 2 3 3 2 1 3 3 4 6 7 5 5 6 7 5 8 8 8 6 6 5 5 5 4
2 0 0 2 2 3 3 1 0 1 2 0 0 2 1 2 1 0 5 1 2 0 2 2 1 4 4 2 2 2 5 5 5 0 2 3 2 3 4 3 3 3 3 4 4 4 4 3 4 4 5 4 5 4 3 3 3 3 2 3 2 3 3 3 3 3 2 3 3 3 1 0 0 2 3 1 2 4 6 5 6 6 6 5 6 6
1 1 3 3 2 1 1 1 1 2 2 0 0 4 3 1 0 0 2 2 2 2 1 4 2 2 4 6 2 3 2 3 2 2 0 1 1 2 3 4 4 3 3 3 3 3 2 3 3 4 4 4 4 4 3 3 3 4 3 3 4 4 4 4 3 4 3 4 3 4 3 1 1 1 3 5 5 4 3 6 6 6 6 6 5 6
1 0 1 1 2 1 0 1 1 1 1 1 3 2 1 1 2 2 1 0 0 1 5 1 2 1 4 6 2 1 1 1 4 3 1 1 1 0 0 2 2 4 3 3 3 2 2 3 3 1 3 4 3 4 4 4 4 4 5 6 5 7 6 5 5 5 5 4 4 4 4 5 3 1 3 4 3 4 5 5 7 7 7 7 7 6
1 1 1 1 1 1 1 1 1 1 1 1 3 3 3 3 3 1 1 0 2 1 4 1 2 2 7 5 1 2 0 5 6 6 3 2 1 0 1 2 1 0 0 2 3 2 2 2 1 2 0 3 4 3 3 4 5 5 5 8 9 8 7 6 7 7 8 7 5 7 6 6 6 5 5 4 6 7 6 7 8 7 8 8 8 8
0 3 5 3 0 1 3 1 0 2 2 3 3 2 1 3 1 2 5 2 2 1 5 1 2 1 3 4 8 6 7 7 5 2 3 3 1 1 0 0 1 2 2 2 1 1 1 1 2 2 6 3 4 4 5 6 6 5 6 7 11 6 7 8 8 8 8 7 7 7 7 7 7 6 6 8 9 8 9 9 9 8 7 7 8 8
1 1 1 0 2 2 3 3 2 1 1 2 1 1 0 1 3 2 2 3 1 4 2 2 1 1 4 3 5 8 3 3 9 8 6 5 4 3 2 1 2 2 2 3 5 5 5 5 5 5 7 5 4 6 7 6 6 7 6 8 11 10 9 8 8 9 9 8 9 7 7 8 7 7 8 10 9 9 9 8 8 7 7 9 8 8
0 0 0 3 1 3 1 4 2 2 2 2 1 3 3 5 5 2 4 1 2 3 1 1 1 1 7 9 2 2 6 4 5 6 10 7 5 5 2 2 1 1 3 5 5 5 5 6 6 6 5 5 6 6 6 6 6 6 7 8 12 10 8 8 7 9 9 9 9 8 8 7 7 9 9 8 9 7 8 7 8 10 10 9 11 11
1 0 2 1 2 1 1 0 0 1 1 1 1 1 3 1 3 1 4 1 5 3 2 1 2 2 5 9 5 8 2 3 3 5 3 5 8 6 4 1 2 3 4 5 5 5 5 6 5 5 5 5 5 5 6 6 6 6 8 8 11 9 7 7 8 8 10 10 8 7 7 7 7 9 9 8 8 7 7 7 8 8 8 8 8 9
1 3 1 1 0 1 0 0 1 1 3 1 1 1 2 4 1 2 2 2 2 3 4 3 1 5 1 3 1 6 6 4 4 4 4 4 3 2 1 1 0 2 4 5 6 5 5 5 5 6 5 5 5 5 6 5 6 6 8 9 10 10 8 8 8 8 10 9 9 8 8 9 8 8 8 8 7 7 8 8 8 8 8 9 8 9
1 4 1 2 1 0 1 1 1 2 4 0 2 3 5 1 3 2 2 2 1 3 5 1 5 3 3 1 4 3 4 1 1 0 1 2 2 1 1 2 4 4 5 5 6 5 4 4 5 5 5 5 5 5 6 6 5 8 8 8 9 9 7 8 8 8 8 8 8 9 10 10 9 8 8 8 8 8 8 8 9 9 9 8 8 8
2 1 0 5 2 1 0 1 0 0 1 1 2 0 1 1 6 4 1 0 0 2 7 1 8 6 8 4 1 2 1 1 1 1 1 3 2 1 4 4 5 4 5 5 6 6 5 3 4 4 5 5 6 7 7 6 5 6 7 9 10 9 8 9 8 8 8 8 9 10 10 10 10 10 10 9 9 9 8 8 8 9 8 8 9 8
2 2 1 2 0 0 1 0 0 2 0 3 1 2 1 1 3 2 1 1 4 2 6 1 3 7 5 5 2 1 4 4 3 4 4 3 1 4 6 5 6 6 5 5 5 5 5 5 5 4 5 5 7 6 7 7 5 7 7 8 10 9 10 8 8 8 7 8 9 9 10 10 9 9 9 9 9 8 9 9 9 8 10 10 9 9
2 2 1 0 1 3 1 0 1 0 1 1 1 0 0 1 0 2 2 2 1 3 5 6 2 5 6 7 0 4 7 9 8 6 3 6 5 6 6 5 4 3 4 5 6 5 5 5 5 5 7 6 7 6 6 6 7 8 8 8 9 9 7 6 6 6 7 8 8 8 9 9 9 9 9 8 8 8 10 11 10 10 10 10 10 10
1 1 2 0 2 2 1 1 3 1 2 1 0 1 0 1 1 2 2 2 3 4 3 6 4 5 7 5 9 9 12 11 9 6 9 9 9 8 7 7 7 7 6 6 6 5 5 5 5 5 7 8 7 7 6 7 8 10 8 8 8 7 6 6 8 8 10 8 8 8 8 9 9 9 9 9 10 10 11 10 10 10 11 10 9 10
2 1 2 0 2 1 1 3 6 8 5 0 1 1 1 0 2 1 0 1 2 3 3 1 7 6 6 7 7 9 9 12 13 14 9 9 9 7 6 9 7 7 7 6 7 6 6 7 6 6 6 7 6 6 6 7 9 7 7 8 7 8 7 8 7 8 8 8 9 10 11 10 10 11 9 11 11 11 10 10 9 9 8 8 11 9
2 0 3 1 1 3 4 1 1 2 3 5 8 6 8 6 2 1 7 2 1 2 4 3 9 8 11 3 7 5 6 7 7 6 9 8 8 7 5 5 7 7 6 7 6 6 8 7 7 6 6 5 8 8 9 7 8 8 7 6 6 7 7 7 8 8 8 8 9 10 10 10 9 9 10 11 11 11 10 9 9 8 9 10 9 9
1 3 2 3 6 2 1 0 1 0 1 1 2 1 4 2 5 4 1 3 1 1 3 2 0 12 7 3 4 5 3 4 5 5 8 7 7 7 5 6 5 5 7 7 7 7 7 7 7 7 8 8 9 8 8 7 7 7 6 6 7 9 9 8 7 6 6 8 9 10 9 10 10 9 10 11 10 10 10 9 9 8 9 9 9 9
4 1 0 4 4 2 1 0 0 2 1 1 0 1 2 3 4 6 3 4 5 1 1 1 2 11 7 0 3 4 4 4 4 5 9 6 6 7 6 5 6 5 3 5 5 6 7 7 7 8 8 9 8 8 7 6 6 6 6 6 7 10 8 8 6 6 7 8 10 10 11 11 9 9 8 9 9 10 9 9 8 7 9 8 9 10
1 2 3 2 4 3 1 1 0 0 1 2 2 3 2 2 4 2 4 1 1 8 8 7 7 9 2 3 4 2 2 4 6 7 7 8 7 7 5 4 4 5 7 6 8 9 8 7 8 7 7 8 8 7 6 6 7 7 7 6 8 8 7 7 6 7 7 7 10 10 11 9 8 9 9 9 8 9 9 9 8 8 9 8 9 9
1 1 3 2 3 3 3 3 2 1 5 3 0 0 3 5 6 3 2 1 4 3 5 4 8 10 7 6 4 3 3 5 5 6 5 6 6 7 4 4 4 6 8 8 9 9 9 8 7 7 8 8 7 7 7 7 7 7 7 8 6 8 8 8 7 7 7 6 9 9 10 8 8 9 9 8 8 8 8 8 8 8 8 8 8 9
1 1 2 5 5 8 8 3 1 2 2 2 1 4 4 3 1 2 5 4 9 3 7 12 10 11 12 5 4 4 3 5 5 5 9 9 8 6 1 3 5 7 9 12 11 9 8 8 9 9 8 8 8 6 6 7 7 7 8 9 8 8 8 7 7 7 8 7 7 8 9 9 9 8 8 8 7 6 7 8 8 9 9 8 8 9
2 1 4 3 6 5 1 2 1 2 4 3 3 5 5 6 7 8 10 9 6 6 12 10 6 7 21 12 7 7 6 5 6 5 6 6 7 8 4 4 2 4 6 8 8 11 12 10 9 10 9 9 8 7 6 5 6 7 8 9 8 7 7 6 7 8 7 6 6 8 8 8 7 7 7 7 7 7 7 7 8 8 7 7 8 9
3 2 1 2 4 4 3 3 1 1 4 4 5 4 7 9 8 12 11 8 8 8 18 4 8 7 14 12 8 9 8 10 11 14 11 5 2 2 3 5 7 9 10 11 11 10 12 12 11 11 10 9 9 9 8 7 7 8 8 8 8 7 7 6 8 8 7 6 7 7 6 6 6 6 7 7 7 8 8 7 6 7 6 7 7 6
2 4 1 0 3 5 3 2 1 5 3 2 7 10 9 11 15 17 15 11 14 16 17 16 9 16 19 20 6 9 7 6 6 1 0 2 6 6 4 5 7 10 12 13 12 11 10 11 11 11 11 10 9 9 8 8 8 8 9 8 7 8 6 6 7 7 7 8 7 5 5 7 7 7 7 8 8 7 7 6 6 6 6 7 7 7
2 4 5 1 1 5 2 3 1 0 2 6 9 9 10 10 10 14 9 7 6 15 18 20 15 21 26 11 7 7 5 4 3 6 10 10 8 6 6 8 9 12 12 11 11 11 11 11 11 11 10 10 10 9 9 8 8 8 9 8 8 8 6 6 8 8 8 8 6 5 5 7 7 7 8 7 6 6 6 6 5 6 7 7 7 8
1 2 2 1 2 5 2 5 3 3 3 6 13 12 10 9 9 10 12 11 10 18 14 3 9 15 25 2 8 5 8 9 11 13 12 9 7 8 10 11 11 12 13 13 12 12 12 12 12 12 11 11 10 9 9 9 8 8 9 8 8 7 6 7 8 8 8 7 5 5 6 6 6 7 6 6 6 5 5 5 7 8 8 7 8 8
4 4 2 1 1 6 3 1 5 6 6 11 16 15 18 16 13 2 6 4 18 18 8 8 16 20 10 3 2 4 6 10 9 12 14 11 7 7 10 10 12 13 14 15 14 13 12 13 12 12 11 10 10 9 8 9 10 9 9 9 8 7 7 8 8 8 7 5 5 5 6 5 6 6 6 6 6 6 6 7 8 8 8 9 7 7
2 4 2 1 1 2 3 5 2 4 5 14 3 1 4 9 13 15 11 15 15 10 13 12 17 11 4 3 7 9 8 9 12 10 3 6 7 6 6 7 11 12 10 10 11 12 12 10 10 10 10 10 9 9 8 7 10 9 8 9 7 8 7 8 7 7 6 5 5 5 5 5 5 7 7 6 6 6 7 8 8 7 7 6 7 8
5 3 2 1 1 2 3 3 6 6 15 5 1 2 0 1 6 14 14 8 9 14 17 16 19 18 18 10 11 9 6 5 1 4 5 4 3 4 6 8 10 12 13 12 12 11 12 12 12 12 11 10 10 9 10 9 9 9 8 8 9 7 7 7 7 6 5 5 6 6 6 6 6 6 7 6 6 6 7 8 7 8 8 7 7 9
7 6 3 0 2 1 1 2 0 12 6 7 13 5 3 2 1 1 10 15 16 15 17 19 24 22 17 13 10 4 4 2 3 5 8 5 5 7 6 9 11 12 15 13 16 14 15 15 15 15 13 10 10 9 9 10 8 10 9 8 8 8 7 7 7 6 6 6 6 6 6 6 5 6 6 6 6 7 8 8 7 8 7 7 6 7
7 4 3 2 1 5 4 5 12 9 18 16 8 2 6 6 5 6 9 12 6 10 16 18 20 16 15 15 5 2 1 1 5 10 7 8 7 8 10 7 10 12 12 12 12 13 11 12 12 12 12 11 10 10 10 9 10 10 10 9 8 8 8 6 6 6 6 6 6 6 6 6 6 6 7 6 6 7 7 7 7 7 6 7 7 7
0 4 3 4 4 4 4 7 6 3 6 9 7 2 1 1 4 2 2 11 2 10 14 15 14 17 14 8 2 3 3 0 8 15 10 9 7 6 5 8 7 9 11 12 11 10 11 10 10 11 12 13 11 10 10 9 10 10 10 9 8 8 7 6 7 6 6 6 6 6 6 6 6 6 6 6 7 6 6 6 6 6 6 6 6 7
4 5 3 7 2 3 1 4 5 6 9 6 2 0 0 3 4 3 2 12 6 15 9 12 14 14 11 7 6 7 5 3 11 14 5 11 10 8 12 10 11 10 11 11 14 14 13 12 12 12 11 12 12 10 9 10 10 10 10 9 7 7 6 6 6 6 6 6 6 6 6 6 6 5 5 6 6 6 6 6 6 6 6 5 5 6
4 1 2 1 3 5 4 3 12 6 7 1 3 4 2 3 3 2 6 9 3 1 7 10 12 12 7 7 10 10 9 6 12 14 9 12 10 9 11 13 12 12 11 11 10 11 13 13 13 13 12 12 12 11 10 9 9 10 10 8 6 6 6 6 6 5 6 7 7 6 6 5 5 5 5 6 5 6 6 5 6 6 6 6 6 5
2 1 2 12 6 5 7 10 5 8 7 8 5 3 2 4 2 2 10 15 3 4 4 8 11 9 7 10 12 9 16 11 2 3 12 11 12 10 7 8 11 12 14 13 13 13 12 11 11 12 12 11 11 10 9 9 10 10 9 8 7 7 6 5 5 6 7 7 6 6 6 5 5 5 6 5 5 5 5 6 6 6 6 5 5 6
1 2 1 3 4 11 8 8 13 9 8 11 5 12 6 2 4 14 10 1 2 4 7 9 9 7 10 14 13 14 3 3 5 7 10 12 12 12 11 12 13 10 9 10 12 12 11 11 11 11 11 10 11 10 9 9 10 10 9 8 8 6 5 5 6 6 6 6 6 6 6 5 5 5 4 5 5 5 5 6 5 5 5 5 5 6
12 10 8 8 4 3 1 3 6 10 6 10 10 4 1 5 10 6 3 4 4 3 5 6 9 8 9 11 13 6 4 4 8 9 10 10 12 14 14 15 16 15 16 15 13 10 12 12 12 11 11 10 10 9 8 10 11 10 9 8 7 5 5 5 6 6 6 6 6 5 5 5 5 4 4 5 6 6 5 5 4 5 5 5 5 6
7 4 3 5 8 8 9 9 12 11 3 12 17 10 9 17 8 4 3 5 2 4 4 6 7 9 10 11 12 7 6 8 7 10 10 9 9 11 10 11 11 11 11 9 10 12 12 11 11 11 9 9 9 8 9 10 11 10 9 8 6 5 5 6 6 6 6 5 5 5 5 4 5 5 5 6 6 5 4 5 4 5 3 5 4 3
14 11 8 8 8 9 11 14 8 3 3 10 10 7 9 17 5 3 3 5 3 6 4 3 7 6 9 8 5 8 7 9 9 12 14 14 12 12 14 14 15 15 13 14 12 11 9 11 11 10 10 9 10 9 9 8 11 11 10 7 6 5 5 5 6 5 5 5 5 4 4 4 5 6 5 5 5 4 3 4 5 4 5 3 4 5
2 4 1 0 6 6 12 9 1 2 3 8 12 13 5 3 5 4 7 8 8 7 6 7 5 6 6 7 10 6 10 10 11 12 11 12 11 12 11 13 11 10 10 10 11 11 10 11 12 12 14 12 11 10 10 9 9 11 9 6 6 5 6 5 5 5 5 4 4 4 5 4 5 5 6 5 4 3 3 4 4 3 4 3 3 3
5 2 1 5 2 1 13 2 12 17 9 11 16 12 7 7 10 5 4 9 11 6 6 6 5 6 9 9 12 12 10 11 12 11 10 11 13 13 13 12 10 12 13 13 12 13 11 12 11 13 13 12 11 10 10 10 9 9 7 6 5 5 5 5 5 5 4 4 4 4 5 5 4 4 4 4 3 3 4 3 3 3 3 2 1 1
5 5 5 9 4 8 22 3 5 5 8 10 7 7 11 15 14 11 12 8 5 3 4 4 3 5 6 10 12 11 11 12 14 14 12 13 13 13 14 15 17 15 10 11 12 12 12 12 13 14 13 12 11 10 10 10 9 8 7 6 5 5 5 5 5 4 4 5 4 4 4 4 5 4 2 3 3 2 3 4 4 1 2 1 1 3
6 7 5 5 9 15 15 16 17 8 15 20 13 11 13 13 11 9 10 11 8 8 8 5 7 8 10 12 8 8 11 14 15 15 16 13 13 13 14 13 12 12 11 13 12 11 11 12 13 13 13 11 11 11 10 10 8 7 7 6 4 4 5 5 5 5 5 5 4 4 4 3 3 2 2 2 3 3 2 0 1 3 2 5 2 3
7 8 3 3 7 11 14 17 6 3 12 17 16 16 17 17 13 12 7 6 10 12 11 10 10 6 7 7 10 11 14 13 12 14 16 14 13 11 12 12 11 11 10 9 9 8 8 9 11 12 12 11 11 10 10 9 8 7 6 5 4 4 5 5 5 5 4 4 3 2 3 2 2 1 2 2 0 2 4 6 5 4 4 2 8 9
14 12 7 10 12 17 20 20 11 13 16 19 18 7 6 7 7 11 13 14 14 14 12 10 9 7 10 10 8 11 11 12 11 10 10 11 10 10 10 12 12 11 10 10 12 9 9 9 10 11 12 11 10 10 9 8 7 6 5 5 4 5 5 5 4 3 3 3 1 2 1 0 0 1 1 1 0 1 2 3 7 8 8 6 7 9
Wind_Direction
269 84 82 190 204 200 249 199 138 142 134 103 85 93 120 268 289 284 299 297 35 326 250 256 277 274 280 278 283 297 334 306 280 271 266 267 264 263 262 259 267 269 250 270 287 280 284 302 315 332 16 13 1 24 23 347 323 353 298 343 299 326 3 2 345 355 26 354 338 18 24 311 281 301 312 310 329 339 320 321 320 321 318 310 308 303
70 72 351 202 201 181 180 165 106 70 41 122 110 69 357 172 272 215 67 342 315 39 284 339 306 284 271 285 285 306 343 288 252 248 262 258 248 252 242 260 253 253 296 313 312 296 330 340 339 353 15 24 4 353 6 328 307 312 324 289 281 316 333 350 317 278 305 227 223 236 274 283 284 323 356 335 344 339 326 328 329 333 334 320 294 294
36 127 182 223 150 92 61 121 48 130 104 29 116 146 30 320 255 287 293 344 299 10 264 0 342 293 290 293 295 272 247 257 239 201 221 205 255 247 243 245 264 293 281 322 287 286 289 317 326 354 345 5 340 291 302 295 320 317 308 277 289 306 328 342 342 325 306 312 247 178 246 242 304 251 217 245 273 310 319 314 331 344 352 340 326 291
52 297 210 119 126 97 39 60 93 77 69 88 52 42 235 267 29 325 286 352 331 49 279 352 333 291 303 294 273 262 221 271 269 252 258 224 234 229 219 208 220 246 267 261 248 247 297 302 299 322 333 327 343 332 318 332 325 318 316 335 334 327 346 341 328 298 277 258 263 246 244 250 198 276 320 310 296 340 348 350 349 353 352 342 330 327
168 191 140 91 135 203 111 16 92 70 25 359 90 131 148 1 321 183 273 317 281 336 50 317 305 301 324 348 330 321 339 329 306 331 266 255 237 260 295 294 220 225 211 235 262 274 286 320 307 305 294 326 324 327 346 332 321 308 306 312 324 339 340 326 329 324 305 339 14 350 354 7 347 1 359 349 352 4 348 335 353 344 342 338 334 337
49 321 113 79 41 62 108 46 11 127 7 333 228 156 157 148 237 300 314 351 15 339 21 34 358 314 302 282 248 287 349 346 326 0 223 273 285 281 269 259 280 249 231 223 228 240 286 288 312 314 349 7 349 343 310 302 288 288 297 323 346 4 2 359 346 335 14 54 48 21 18 2 5 349 353 7 348 336 343 332 310 321 342 339 340 343
157 2 145 181 124 73 76 135 251 142 147 90 247 178 170 160 137 170 340 25 356 101 332 28 122 270 329 286 237 324 334 302 319 300 274 298 286 277 249 255 259 251 273 248 263 273 291 307 337 323 16 352 353 334 328 318 311 313 321 353 7 7 16 15 4 4 36 44 54 74 96 128 4 324 286 261 282 301 309 317 322 322 335 350 350 349
82 347 58 48 78 73 85 64 204 129 99 269 92 136 107 103 51 211 96 99 226 285 286 54 73 180 311 289 258 281 334 305 309 286 304 325 301 277 257 254 251 252 244 237 252 271 281 291 270 294 315 337 338 314 335 357 5 16 1 27 40 43 42 31 12 37 25 67 55 59 57 70 38 332 291 321 321 318 311 333 336 339 344 350 358 355
116 59 122 64 75 90 189 208 168 153 129 203 193 177 186 172 169 128 71 128 230 9 295 344 327 61 259 264 315 348 195 287 248 241 267 310 322 316 281 264 253 244 237 216 248 273 301 312 319 299 343 341 354 10 18 20 23 36 57 70 65 49 38 22 30 45 33 43 63 77 64 41 21 1 325 321 325 341 346 357 351 360 351 356 358 8
324 103 236 135 138 249 223 352 140 158 68 236 138 92 93 77 80 87 100 39 335 46 277 231 343 197 283 277 327 350 253 254 238 236 246 254 257 316 80 77 138 51 289 238 231 258 281 277 321 322 330 25 22 7 33 48 53 57 65 65 61 44 36 25 36 43 41 37 43 52 46 50 28 18 3 13 16 14 6 14 7 2 3 360 2 3
239 301 178 79 144 152 126 9 116 43 78 111 116 86 11 29 42 23 67 88 51 351 256 252 301 149 298 248 202 149 216 192 202 290 276 286 276 270 278 297 29 55 53 71 118 179 84 50 56 66 65 48 39 39 55 53 57 62 64 71 64 47 42 36 39 44 42 40 42 49 44 48 38 23 32 31 25 15 20 20 9 10 0 2 6 3
27 1 46 309 63 90 113 67 38 78 78 122 101 151 47 352 4 39 339 36 98 277 261 267 276 294 182 293 275 237 275 214 167 179 179 168 169 159 139 82 68 65 73 97 100 86 83 72 55 63 59 53 50 58 54 56 59 60 61 69 69 45 39 38 38 47 44 45 42 45 45 48 42 42 42 42 34 20 22 18 14 3 10 14 9 15
73 98 191 3 223 114 121 83 9 15 7 68 53 27 64 284 26 283 18 309 200 199 264 303 216 12 239 225 233 276 248 251 225 177 171 174 181 175 155 132 116 124 111 95 93 90 78 85 77 74 73 67 59 65 62 61 66 65 62 62 69 49 38 43 43 52 48 49 43 41 45 46 47 50 49 44 44 26 31 20 24 20 20 9 16 12
284 134 22 270 17 184 137 123 310 38 4 81 107 112 67 23 36 275 278 232 299 298 259 341 284 266 255 287 238 236 254 221 218 236 243 181 169 182 176 146 73 91 106 108 96 88 93 98 96 97 96 90 82 71 68 64 66 65 65 62 71 59 46 48 50 50 55 50 46 44 49 48 49 52 49 44 43 30 33 31 34 31 24 22 20 10
350 343 262 96 112 50 269 104 191 162 142 166 156 96 169 136 168 280 241 278 248 235 274 285 56 234 103 229 216 227 248 285 260 249 248 250 255 243 270 305 305 118 95 100 95 97 105 108 114 111 102 94 82 74 62 61 64 71 67 65 69 65 48 53 53 53 56 52 46 46 48 48 48 50 49 47 42 36 34 29 35 32 26 28 16 17
198 210 265 279 239 335 153 258 104 101 77 178 173 89 71 240 133 214 204 173 281 346 340 236 215 189 182 274 284 295 293 292 301 329 179 229 232 260 246 175 157 146 118 109 112 106 103 119 114 104 98 92 84 74 66 60 63 74 74 75 72 72 62 56 57 55 57 54 53 48 48 46 49 49 50 48 40 40 39 37 38 34 32 27 22 19
5 286 325 318 41 82 258 228 308 11 216 240 101 194 204 127 99 91 66 60 223 47 253 184 314 295 299 308 320 347 95 278 351 170 154 198 190 151 201 180 165 159 133 131 132 134 134 111 91 102 108 94 82 73 71 71 69 81 82 80 76 70 63 58 57 61 57 58 58 51 51 50 49 50 48 47 42 41 39 42 39 39 34 33 30 26
153 242 316 73 200 305 257 134 348 6 250 87 46 233 170 145 121 132 275 342 60 132 265 44 238 304 27 260 331 46 169 226 238 220 228 228 217 203 208 187 173 169 162 160 147 143 138 124 115 97 79 85 87 88 79 73 68 71 73 74 78 68 67 58 60 58 56 62 62 56 54 52 53 53 54 50 49 42 46 42 41 36 37 32 28 29
115 337 301 261 243 263 11 269 16 77 352 96 173 200 128 249 116 337 95 319 325 287 286 309 281 255 190 251 298 242 201 212 224 226 231 226 225 217 213 208 193 168 151 159 160 148 134 124 113 103 97 89 84 81 85 82 76 72 68 66 70 74 70 74 72 73 66 61 63 60 57 56 54 53 53 51 50 48 47 42 37 38 35 33 28 29
30 161 291 260 132 322 332 111 254 238 8 61 128 49 305 114 182 102 205 180 118 277 38 290 26 256 207 220 196 209 202 199 195 201 216 215 211 204 196 188 174 178 175 173 161 150 132 115 108 108 105 95 91 88 82 83 75 69 68 71 72 71 70 70 67 67 68 61 65 65 64 56 56 53 52 48 47 47 46 40 39 36 36 33 32 31
109 132 252 279 276 1 257 195 213 157 155 53 90 318 343 2 222 90 354 152 205 186 182 236 324 277 262 210 176 216 205 201 188 195 204 213 220 213 194 177 177 177 172 174 159 144 125 114 106 99 97 98 91 85 80 76 76 76 71 72 68 74 67 64 62 67 67 66 63 63 58 54 52 50 49 51 46 49 44 40 38 38 37 37 37 30
86 81 196 321 33 231 224 300 216 161 162 168 160 194 174 122 126 138 272 26 77 106 240 130 257 264 269 177 204 205 227 210 224 194 198 213 216 215 192 199 176 169 186 167 156 137 123 115 114 107 99 98 91 85 82 76 80 72 69 74 78 76 65 66 58 60 66 66 68 65 61 58 55 53 51 52 47 47 44 40 38 35 36 43 35 33
150 158 96 234 199 214 261 343 300 73 107 158 154 229 147 133 105 101 200 268 42 243 102 161 335 273 248 208 218 235 229 230 228 201 219 218 215 220 176 196 188 179 166 164 146 135 126 124 122 118 112 103 97 95 90 84 83 86 83 80 76 77 68 63 63 57 64 71 70 66 64 60 55 52 51 54 50 48 44 39 39 34 41 40 37 35
104 86 47 288 314 323 349 340 60 45 116 11 289 74 113 185 186 175 171 173 140 135 138 357 244 256 286 302 261 256 258 254 258 216 222 225 221 231 160 186 179 176 148 127 120 115 123 124 126 119 113 105 101 99 96 97 96 92 86 83 82 76 74 69 62 62 62 66 69 69 65 60 56 55 54 56 51 50 43 40 38 35 40 40 39 38
135 291 123 338 354 340 342 353 1 335 64 204 208 213 197 94 69 147 102 75 297 213 171 132 243 276 272 320 291 259 271 268 253 239 211 214 225 225 170 159 177 151 129 134 134 133 133 131 126 123 118 114 112 106 104 102 99 94 92 86 84 82 77 74 66 67 61 60 68 65 65 64 58 57 54 53 51 49 44 39 37 34 37 37 39 36
96 217 118 161 203 274 284 304 272 259 225 218 170 91 235 160 142 124 231 103 205 277 132 180 251 251 283 315 320 325 331 300 258 230 224 228 226 205 187 153 171 152 149 146 141 142 143 138 128 122 122 118 115 115 112 109 104 101 95 86 84 87 80 70 68 67 67 59 66 66 67 65 58 54 51 49 47 46 44 43 38 35 34 33 37 36
162 37 184 165 164 207 213 204 242 117 56 208 234 173 209 204 209 102 96 116 211 203 193 232 225 297 298 288 308 285 284 257 244 205 208 217 236 250 168 148 160 166 158 160 158 146 133 133 134 129 125 120 117 116 117 117 112 105 100 90 82 80 81 76 76 72 70 63 64 69 66 61 57 55 51 47 45 43 45 44 38 35 35 27 34 36
63 290 255 192 236 234 165 200 189 192 231 237 195 243 190 173 184 160 175 218 160 94 276 231 216 244 265 261 229 259 259 255 255 249 237 241 224 214 174 176 171 137 145 145 150 155 151 143 138 135 131 124 120 120 115 109 108 106 100 94 86 81 82 81 82 76 73 71 68 66 64 61 59 57 54 50 46 44 44 44 41 38 33 31 34 36
144 181 270 119 270 253 238 236 238 276 214 227 209 193 188 195 162 190 225 212 143 189 245 257 156 219 255 251 224 222 214 211 209 214 215 212 214 196 137 149 169 173 164 162 168 161 153 153 148 141 136 131 130 126 122 117 110 103 93 89 90 88 83 88 86 82 79 73 67 61 61 65 61 57 54 49 47 43 40 40 41 37 33 35 35 35
114 246 198 134 271 297 301 345 301 205 271 283 238 229 218 178 204 208 223 206 197 234 245 266 267 264 265 264 201 232 223 225 234 241 4 203 224 219 197 191 182 179 173 172 169 165 160 150 146 143 139 136 135 131 127 121 114 108 106 103 98 93 88 91 87 87 81 72 66 61 64 66 62 56 50 47 42 38 36 37 35 36 33 34 33 33
136 273 133 119 9 290 302 336 57 261 187 266 255 241 227 218 227 225 235 233 240 270 266 262 278 277 272 252 226 224 233 220 264 237 224 223 222 220 210 209 198 184 180 168 163 164 157 150 144 141 139 140 138 136 130 124 119 113 108 107 103 96 98 96 93 85 77 75 63 62 63 64 60 54 52 47 44 37 36 36 33 36 33 29 30 29
83 252 46 74 325 297 345 23 311 338 241 241 271 255 229 204 226 217 215 208 187 232 240 250 265 260 265 108 218 196 217 217 226 233 233 228 214 212 206 203 192 183 175 171 167 159 156 153 151 148 145 142 140 137 134 129 125 119 112 111 104 103 101 91 85 81 78 71 67 63 61 63 65 60 55 52 46 41 37 36 35 34 29 24 27 23
178 131 152 142 224 259 267 5 326 336 346 302 264 243 227 216 215 231 249 185 209 212 227 221 243 240 261 161 190 242 205 230 240 246 248 258 252 200 196 194 188 183 175 169 166 163 158 155 151 146 140 140 143 138 137 132 127 120 121 110 111 107 95 90 87 88 84 77 73 67 63 65 69 67 59 50 47 41 38 37 35 31 26 20 19 18
104 121 146 173 193 254 297 321 323 29 324 249 236 224 154 193 202 217 232 215 221 165 215 219 243 271 295 237 213 240 201 216 218 238 208 210 211 213 222 206 189 177 167 164 160 154 147 140 140 141 141 140 136 131 130 127 120 117 112 110 106 100 99 99 94 88 85 83 74 65 62 60 63 62 55 48 45 42 40 39 36 28 26 14 18 20
151 118 159 149 153 273 320 338 347 263 244 254 289 274 188 169 178 208 239 240 222 216 241 262 261 258 252 243 238 239 231 244 296 232 240 227 212 218 204 191 178 167 165 159 154 155 151 146 142 140 138 139 135 131 127 120 118 117 110 109 105 104 107 100 98 90 87 80 70 63 57 51 55 57 50 44 45 40 42 38 32 25 23 14 19 17
165 142 166 316 152 54 49 83 229 238 229 281 278 233 180 107 124 33 292 251 232 219 216 235 245 249 256 257 249 218 228 264 297 258 238 228 202 209 203 194 177 167 167 173 162 157 156 158 153 148 141 136 132 131 128 127 128 119 114 114 110 110 103 102 97 95 88 76 65 60 52 50 49 56 49 43 41 41 39 36 30 22 18 11 17 17
156 99 122 221 159 214 202 181 237 324 318 296 289 237 161 208 181 173 255 282 188 214 205 227 244 252 257 252 250 107 52 28 320 279 203 197 196 212 206 198 177 171 159 154 156 150 147 143 141 139 134 134 135 133 133 132 128 122 120 115 113 108 104 103 99 94 85 77 65 58 50 45 50 50 45 39 40 37 33 32 24 22 17 12 12 10
6 165 234 167 256 132 224 299 321 343 260 282 244 288 244 184 147 187 100 284 212 236 209 209 231 243 243 250 110 122 117 17 283 266 209 172 168 159 154 143 142 145 145 142 134 131 136 135 129 131 135 134 134 135 135 135 131 125 118 117 117 111 110 105 95 88 80 79 70 64 55 43 46 50 40 40 41 33 28 31 27 24 10 10 5 3
31 86 132 158 212 69 151 204 225 213 243 212 236 170 289 182 142 176 37 281 230 218 208 182 224 238 229 192 156 143 110 204 245 252 165 161 159 164 147 148 145 142 144 143 145 142 141 139 138 136 133 133 133 137 137 134 130 121 115 116 112 109 106 95 92 84 81 80 73 63 58 46 41 53 42 43 36 31 27 26 24 14 9 5 8 1
74 346 54 125 211 195 143 214 248 199 238 266 232 258 236 175 148 68 324 274 269 237 193 179 214 235 216 158 146 168 168 222 243 253 146 162 152 150 150 144 144 136 133 131 132 138 137 139 136 139 139 139 136 135 136 132 122 115 114 110 106 103 96 92 91 89 86 81 71 66 59 52 49 48 50 42 30 33 29 29 23 8 9 2 3 354
159 257 156 219 195 211 199 262 331 279 259 238 217 211 192 191 112 92 227 248 240 218 200 177 215 220 154 154 169 174 217 216 279 98 139 131 133 132 112 118 135 144 144 144 144 141 140 142 140 140 140 135 134 133 132 129 120 113 109 109 104 97 94 95 93 86 82 76 73 69 59 48 53 54 40 39 37 28 29 32 22 7 5 2 354 356
319 108 310 78 202 208 209 213 245 274 229 208 225 160 172 104 216 220 241 135 153 218 215 194 215 208 169 183 187 213 213 84 136 115 127 145 142 139 134 136 136 128 132 135 141 142 137 137 131 130 130 133 134 132 131 126 114 110 112 108 102 100 93 90 85 82 81 82 75 70 59 55 43 47 53 33 44 32 36 29 25 9 4 4 354 352
185 149 203 183 198 56 87 222 337 282 286 194 132 73 210 181 245 218 245 275 182 215 172 215 214 224 177 213 218 206 100 138 134 153 143 147 150 152 148 151 155 152 153 150 148 148 140 136 136 135 135 133 133 129 128 121 112 113 112 106 103 97 88 85 88 86 90 83 77 71 60 56 53 51 46 41 39 37 38 17 23 12 359 8 352 9
186 176 218 242 183 165 171 178 209 217 164 153 151 182 196 216 219 169 138 269 219 179 200 223 235 217 204 208 204 176 143 143 160 148 152 149 153 148 144 145 145 146 144 142 141 145 140 129 132 129 128 127 125 124 121 121 115 115 111 102 96 92 85 87 86 92 92 86 79 71 59 55 57 51 45 40 45 21 41 17 19 14 347 15 359 23
192 199 168 181 202 169 199 216 230 238 190 201 209 217 204 218 214 179 169 229 249 253 189 183 243 219 203 198 170 168 164 196 171 171 164 171 163 161 160 163 161 159 153 151 151 145 134 132 131 128 126 126 125 120 112 112 116 112 103 98 93 86 90 89 90 90 91 87 79 73 64 48 58 53 42 30 41 25 15 23 13 22 341 22 23 18
315 213 90 90 244 276 284 239 155 264 166 246 243 243 247 286 279 206 226 256 246 225 180 205 220 194 185 175 158 196 199 177 169 174 173 171 169 164 156 157 152 141 136 135 137 145 135 130 129 131 132 125 115 107 106 107 108 107 104 98 92 91 95 97 100 95 92 89 82 71 66 48 50 45 40 32 26 19 15 32 19 8 336 12 32 15
238 147 180 223 273 348 261 238 198 236 234 229 235 245 264 253 248 211 221 225 248 230 224 235 203 186 180 175 193 190 183 171 176 174 173 173 176 175 164 159 152 153 154 153 150 142 139 139 136 136 130 118 111 105 103 102 96 97 99 94 95 99 103 104 102 99 94 85 70 53 61 46 45 36 26 17 30 15 34 24 16 353 319 27 68 24
297 162 180 225 237 201 252 179 216 254 257 261 249 262 253 249 244 231 226 242 240 240 230 227 167 190 169 195 203 184 179 174 173 174 176 181 177 174 173 169 169 165 152 143 144 146 142 145 145 139 130 124 117 113 107 104 100 97 95 92 92 103 107 102 98 96 85 71 62 49 58 49 33 35 38 3 28 33 28 4 340 300 300 69 93 31
173 120 220 174 207 248 278 283 262 273 282 272 247 218 236 242 244 245 228 231 233 242 238 221 204 202 188 208 174 169 169 188 186 177 173 174 175 178 177 170 156 153 139 148 150 150 149 146 143 140 131 124 117 113 107 103 100 97 94 91 92 104 109 99 85 79 75 68 58 52 49 43 38 24 52 17 16 351 7 316 307 327 359 337 32 50
110 215 174 112 250 253 247 247 219 226 258 259 252 239 238 239 233 242 239 222 226 228 227 218 224 215 212 201 187 184 187 183 178 177 181 177 173 163 157 153 141 137 135 131 131 131 129 135 135 131 124 119 116 112 108 105 99 95 94 91 88 95 95 90 85 78 68 60 51 52 45 25 22 19 62 11 17 315 310 322 3 1 10 0 338 340
205 220 131 219 226 253 249 247 228 234 253 259 268 257 222 235 210 223 233 233 231 225 219 208 215 210 214 214 193 191 194 178 167 151 154 167 162 153 147 141 139 139 135 129 129 117 110 119 122 120 117 117 112 109 107 104 100 94 88 87 82 84 87 90 87 90 97 82 35 62 59 24 17 336 54 324 218 279 310 317 334 353 6 10 328 323